This demonstration page uses our WeatherBlox Daily Observations layout. Learn more.

Left ArrowRight Arrow

39.01783, -85.05884

Hourly Observations for August 28, 2015

Temp ( °F °C ) Dew Point ( °F °C ) Humidity (%) Winds ( mph kmh ) Pressure ( in mb ) Visibility ( mi km ) Precip ( " mm )
12:52 am 00:52 Mostly Clear 62 16.7 57 13.9 84 84 ESE 3 6 30.12 1020 10 16 N/A
1:52 am 01:52 Mostly Clear 63 17.2 56 13.3 78 78 N N/A 30.13 1020 10 16 N/A
2:52 am 02:52 Mostly Clear 59 15 56 13.3 90 90 N N/A 30.12 1020 10 16 N/A
3:52 am 03:52 Mostly Clear 58 14.4 55 12.8 90 90 N N/A 30.12 1020 10 16 N/A
4:52 am 04:52 Clear 60 15.6 55 12.8 84 84 NNE 3 6 30.13 1020 10 16 N/A
5:52 am 05:52 Mostly Clear 60 15.6 57 13.9 90 90 NE 5 7 30.14 1021 10 16 N/A
6:30 am 06:30 Mostly Clear 57 14 57 14 100 100 N N/A 30.18 1022 7 11 N/A
6:52 am 06:52 Mostly Clear 56 13.3 55 12.8 97 97 N N/A 30.16 1022 7 11 N/A
7:15 am 07:15 Sunny 55 13 55 13 100 100 N N/A 30.18 1022 7 11 N/A
7:37 am 07:37 Sunny with Fog 57 14 55 13 94 94 N 3 6 30.18 1022 7 11 N/A
7:49 am 07:49 Sunny with Fog 57 14 57 14 100 100 N 5 7 30.18 1022 7 11 N/A
7:52 am 07:52 Partly Cloudy with Fog 58 14.4 56 13.3 93 93 N 5 7 30.17 1022 7 11 N/A
9:52 am 09:52 Sunny 68 20 58 14.4 70 70 E 6 9 30.18 1022 10 16 N/A
10:52 am 10:52 Sunny 72 22.2 56 13.3 57 57 E 8 13 30.18 1022 10 16 N/A
11:52 am 11:52 Mostly Sunny 74 23.3 55 12.8 52 52 ESE 3 6 30.19 1022 10 16 N/A
12:52 pm 12:52 Partly Cloudy 76 24.4 54 12.2 47 47 E 3 6 30.17 1022 10 16 N/A
1:52 pm 13:52 Partly Cloudy 78 25.6 56 13.3 47 47 SE 8 13 30.15 1021 10 16 N/A
2:52 pm 14:52 Sunny 80 26.7 55 12.8 42 42 ESE 9 15 30.14 1021 10 16 N/A
3:52 pm 15:52 Mostly Cloudy 80 26.7 56 13.3 44 44 SE 10 17 30.11 1020 10 16 N/A
4:52 pm 16:52 Mostly Cloudy 79 26.1 56 13.3 45 45 ESE 5 7 30.10 1019 10 16 N/A
5:52 pm 17:52 Cloudy 78 25.6 57 13.9 48 48 S 8 13 30.10 1019 10 16 N/A
6:52 pm 18:52 Mostly Cloudy 78 25.6 57 13.9 48 48 SE 6 9 30.09 1019 10 16 N/A
7:52 pm 19:52 Partly Cloudy 75 23.9 57 13.9 54 54 E 5 7 30.09 1019 10 16 N/A
8:52 pm 20:52 Mostly Cloudy 70 21.1 58 14.4 66 66 SE 5 7 30.09 1019 10 16 N/A
9:52 pm 21:52 Mostly Cloudy 69 20.6 58 14.4 68 68 ESE 5 7 30.11 1020 10 16 N/A
10:52 pm 22:52 Partly Cloudy 67 19.4 59 15 76 76 SE 5 7 30.11 1020 10 16 N/A

Powered by AerisWeather